Tillamook, OR

2:21 PM PDT on July 24, 2016 (GMT -0700)
Tillamook

Weather History for KTMK - August, 2013

Change the Weather History Date:

Friday, August 23, 2013

  Actual Average (KMMV) Record (KMMV)
Temperature  
Mean Temperature 64 °F 66 °F  
Max Temperature 69 °F 82 °F 103 °F (1988)
Min Temperature 59 °F 50 °F 37 °F (1951)
Degree Days  
Heating Degree Days 1 1  
Month to date heating degree days 23  
Since 1 July heating degree days 67  
Cooling Degree Days 0 2  
Month to date cooling degree days 65  
Year to date cooling degree days 165  
Growing Degree Days 14 (Base 50)    
Moisture  
Dew Point 59 °F    
Average Humidity 89    
Maximum Humidity 100    
Minimum Humidity 60    
Precipitation  
Precipitation 0.00 in 0.02 in 1.20 in (1968)
Month to date precipitation 0.37  
Year to date precipitation 22.12  
Sea Level Pressure  
Sea Level Pressure 29.95 in    
Wind  
Wind Speed 1 mph (SSW)    
Max Wind Speed 10 mph    
Max Gust Speed -    
Visibility 8 miles    
Events Rain    
T = Trace of Precipitation, MM = Missing Value Source: NWS Daily Summary

Daily Weather History Graph

Daily Weather History Graph

Search for Another Location

Airport or City:

Trip Planner

Search our weather history database for the weather conditions in past years. The results will help you decide how hot, cold, wet, or windy it might be!

Date:

Astronomy

Aug. 23, 2013 Rise Set
Actual Time 7:26 AM MDT 9:08 PM MDT
Civil Twilight 6:54 AM MDT 9:39 PM MDT
Nautical Twilight 6:16 AM MDT 10:17 PM MDT
Astronomical Twilight 5:35 AM MDT 10:58 PM MDT
Moon 10:17 PM MDT (8/23) 10:39 AM MDT (8/23)
Length of Visible Light 14h 44m
Length of Day
13h 42m
Waning Gibbous, 91% of the Moon is Illuminated
Aug 23
Waning Gibbous
Aug 28
Last Quarter
Sep 5
New
Sep 12
First Quarter
Sep 19
Full

Hourly Weather History & Observations

Time (MDT) Temp. Dew Point Humidity Pressure Visibility Wind Dir Wind Speed Gust Speed Precip Events Conditions
12:15 AM 59.0 °F 55.4 °F 88% 29.96 in 10.0 mi Calm Calm - N/A   Overcast
12:35 AM 59.0 °F 55.4 °F 88% 29.96 in 10.0 mi Calm Calm - N/A   Overcast
12:55 AM 59.0 °F 55.4 °F 88% 29.96 in 7.0 mi Calm Calm - N/A   Overcast
1:15 AM 59.0 °F 57.2 °F 94% 29.96 in 3.0 mi Calm Calm - N/A   Overcast
1:35 AM 59.0 °F 59.0 °F 100% 29.96 in 2.5 mi Calm Calm - N/A   Overcast
1:55 AM 59.0 °F 59.0 °F 100% 29.97 in 3.0 mi Calm Calm - N/A   Overcast
2:15 AM 59.0 °F 59.0 °F 100% 29.96 in 2.5 mi Calm Calm - N/A   Overcast
2:35 AM 59.0 °F 59.0 °F 100% 29.97 in 2.0 mi Calm Calm - N/A   Overcast
3:35 AM 59.0 °F 59.0 °F 100% 29.96 in 2.5 mi Calm Calm - N/A   Overcast
3:55 AM 59.0 °F 59.0 °F 100% 29.96 in 4.0 mi Calm Calm - N/A   Overcast
4:15 AM 59.0 °F 59.0 °F 100% 29.96 in 5.0 mi Calm Calm - N/A   Overcast
4:35 AM 59.0 °F 59.0 °F 100% 29.95 in 5.0 mi Calm Calm - N/A   Overcast
4:55 AM 59.0 °F 59.0 °F 100% 29.95 in 5.0 mi Calm Calm - N/A   Overcast
5:15 AM 59.0 °F 59.0 °F 100% 29.95 in 4.0 mi Calm Calm - N/A   Overcast
5:35 AM 59.0 °F 59.0 °F 100% 29.95 in 7.0 mi Calm Calm - N/A   Overcast
5:55 AM 59.0 °F 59.0 °F 100% 29.95 in 4.0 mi Calm Calm - N/A   Overcast
6:15 AM 59.0 °F 59.0 °F 100% 29.94 in 4.0 mi Calm Calm - N/A   Overcast
6:35 AM 59.0 °F 59.0 °F 100% 29.93 in 7.0 mi Calm Calm - N/A   Overcast
6:55 AM 59.0 °F 59.0 °F 100% 29.94 in 10.0 mi Calm Calm - N/A   Overcast
7:15 AM 59.0 °F 59.0 °F 100% 29.94 in 10.0 mi Calm Calm - N/A   Overcast
7:35 AM 59.0 °F 59.0 °F 100% 29.94 in 10.0 mi Calm Calm - N/A   Overcast
7:55 AM 59.0 °F 59.0 °F 100% 29.94 in 10.0 mi Calm Calm - N/A   Overcast
8:15 AM 59.0 °F 59.0 °F 100% 29.94 in 2.5 mi Calm Calm - N/A   Overcast
8:35 AM 59.0 °F 59.0 °F 100% 29.94 in 2.0 mi Calm Calm - N/A   Overcast
8:55 AM 59.0 °F 59.0 °F 100% 29.94 in 1.2 mi Calm Calm - N/A Rain Light Rain
9:15 AM 59.0 °F 59.0 °F 100% 29.95 in 1.5 mi Calm Calm - N/A   Drizzle
9:35 AM 60.8 °F 60.8 °F 100% 29.95 in 5.0 mi Calm Calm - N/A   Overcast
9:55 AM 60.8 °F 60.8 °F 100% 29.95 in 2.0 mi Calm Calm - N/A Rain Rain
10:15 AM 60.8 °F 60.8 °F 100% 29.95 in 5.0 mi Calm Calm - N/A   Overcast
10:35 AM 62.6 °F 62.6 °F 100% 29.95 in 10.0 mi Calm Calm - N/A   Overcast
10:55 AM 62.6 °F 62.6 °F 100% 29.95 in 10.0 mi Calm Calm - N/A   Overcast
11:15 AM 62.6 °F 62.6 °F 100% 29.96 in 10.0 mi Calm Calm - N/A   Overcast
11:35 AM 62.6 °F 60.8 °F 94% 29.96 in 10.0 mi Calm Calm - N/A   Overcast
11:55 AM 62.6 °F 59.0 °F 88% 29.96 in 10.0 mi Calm Calm - N/A   Overcast
12:15 PM 64.4 °F 59.0 °F 83% 29.97 in 10.0 mi Calm Calm - N/A   Overcast
12:35 PM 64.4 °F 59.0 °F 83% 29.97 in 10.0 mi Calm Calm - N/A   Overcast
12:55 PM 64.4 °F 55.4 °F 73% 29.97 in 10.0 mi Calm Calm - N/A   Overcast
1:15 PM 68.0 °F 55.4 °F 64% 29.97 in 10.0 mi Calm Calm - N/A   Overcast
1:35 PM 68.0 °F 59.0 °F 73% 29.96 in 10.0 mi Calm Calm - N/A   Overcast
1:55 PM 68.0 °F 59.0 °F 73% 29.97 in 10.0 mi Calm Calm - N/A   Overcast
2:15 PM 66.2 °F 59.0 °F 78% 29.96 in 10.0 mi Calm Calm - N/A   Overcast
2:35 PM 68.0 °F 57.2 °F 68% 29.96 in 10.0 mi Calm Calm - N/A   Overcast
2:55 PM 68.0 °F 57.2 °F 68% 29.96 in 10.0 mi Calm Calm - N/A   Overcast
3:15 PM 69.8 °F 59.0 °F 68% 29.96 in 10.0 mi Calm Calm - N/A   Overcast
3:35 PM 68.0 °F 55.4 °F 64% 29.96 in 10.0 mi Calm Calm - N/A   Overcast
3:55 PM 69.8 °F 55.4 °F 60% 29.96 in 10.0 mi Calm Calm - N/A   Overcast
4:15 PM 69.8 °F 55.4 °F 60% 29.96 in 10.0 mi Calm Calm - N/A   Overcast
4:35 PM 69.8 °F 55.4 °F 60% 29.96 in 10.0 mi Calm Calm - N/A   Overcast
4:55 PM 68.0 °F 55.4 °F 64% 29.96 in 10.0 mi WSW 8.1 mph - N/A   Overcast
5:15 PM 68.0 °F 55.4 °F 64% 29.96 in 10.0 mi SSW 6.9 mph - N/A   Overcast
5:35 PM 68.0 °F 57.2 °F 68% 29.96 in 10.0 mi South 9.2 mph - N/A   Overcast
5:55 PM 66.2 °F 57.2 °F 73% 29.96 in 10.0 mi South 10.4 mph - N/A   Overcast
6:15 PM 66.2 °F 57.2 °F 73% 29.96 in 10.0 mi SSW 10.4 mph - N/A   Overcast
6:35 PM 64.4 °F 57.2 °F 77% 29.96 in 10.0 mi SSW 8.1 mph - N/A   Overcast
6:55 PM 64.4 °F 57.2 °F 77% 29.96 in 10.0 mi SSW 9.2 mph - N/A   Overcast
7:15 PM 64.4 °F 57.2 °F 77% 29.96 in 10.0 mi SW 4.6 mph - N/A   Overcast
7:35 PM 64.4 °F 57.2 °F 77% 29.95 in 10.0 mi SW 4.6 mph - N/A   Overcast
7:55 PM 64.4 °F 57.2 °F 77% 29.95 in 10.0 mi Calm Calm - N/A   Overcast
8:15 PM 62.6 °F 59.0 °F 88% 29.94 in 10.0 mi Calm Calm - N/A   Overcast
8:35 PM 62.6 °F 59.0 °F 88% 29.94 in 7.0 mi Calm Calm - N/A   Overcast
8:55 PM 62.6 °F 59.0 °F 88% 29.94 in 4.0 mi Calm Calm - N/A Rain Rain
9:15 PM 60.8 °F 59.0 °F 94% 29.94 in 2.0 mi Calm Calm - N/A   Drizzle
9:35 PM 60.8 °F 60.8 °F 100% 29.95 in 3.0 mi Calm Calm - N/A   Light Drizzle
9:55 PM 60.8 °F 60.8 °F 100% 29.95 in 10.0 mi Calm Calm - N/A   Overcast
10:15 PM 60.8 °F 60.8 °F 100% 29.95 in 5.0 mi Calm Calm - N/A Rain Rain
10:35 PM 60.8 °F 60.8 °F 100% 29.95 in 10.0 mi Calm Calm - N/A   Overcast
10:55 PM 60.8 °F 60.8 °F 100% 29.95 in 7.0 mi Calm Calm - N/A   Drizzle
11:15 PM 60.8 °F 60.8 °F 100% 29.95 in 10.0 mi Calm Calm - N/A   Overcast
11:35 PM 60.8 °F 60.8 °F 100% 29.95 in 10.0 mi Calm Calm - N/A   Overcast
11:55 PM 60.8 °F 60.8 °F 100% 29.95 in 10.0 mi Calm Calm - N/A   Overcast